TimeEST,TemperatureF,Dew PointF,Humidity,Sea Level PressureIn,VisibilityMPH,Wind Direction,Wind SpeedMPH,Gust SpeedMPH,PrecipitationIn,Events,Conditions,WindDirDegrees,DateUTC
12:15 AM,8.1,5.4,89,30.20,7.0,SSW,4.6,-,N/A,,Clear,210,2013-01-03 05:15:00
12:35 AM,9.5,7.0,90,30.20,7.0,SSW,4.6,-,N/A,,Clear,210,2013-01-03 05:35:00
12:55 AM,9.0,6.4,89,30.20,7.0,SW,3.5,-,N/A,,Clear,230,2013-01-03 05:55:00
1:15 AM,7.9,5.0,88,30.20,7.0,WSW,3.5,-,N/A,,Clear,240,2013-01-03 06:15:00
1:35 AM,6.3,3.4,88,30.20,7.0,WSW,3.5,-,N/A,,Clear,250,2013-01-03 06:35:00
1:55 AM,7.7,5.0,89,30.21,7.0,Calm,Calm,-,N/A,,Clear,0,2013-01-03 06:55:00
2:15 AM,8.2,5.9,90,30.20,7.0,Calm,Calm,-,N/A,,Clear,0,2013-01-03 07:15:00
2:35 AM,5.5,2.5,87,30.20,4.0,Calm,Calm,-,N/A,,Clear,0,2013-01-03 07:35:00
2:55 AM,7.9,5.5,90,30.20,4.0,North,-9999.0,-,N/A,,Clear,0,2013-01-03 07:55:00
3:15 AM,6.6,3.9,89,30.20,7.0,North,-9999.0,-,N/A,,Clear,0,2013-01-03 08:15:00
3:35 AM,3.6,0.3,86,30.19,4.0,North,-9999.0,-,N/A,,Clear,0,2013-01-03 08:35:00
3:55 AM,7.2,4.6,89,30.19,3.0,Calm,Calm,-,N/A,,Clear,0,2013-01-03 08:55:00
4:15 AM,7.3,4.5,88,30.19,2.5,Calm,Calm,-,N/A,,Clear,0,2013-01-03 09:15:00
4:35 AM,6.4,3.4,87,30.19,0.5,Calm,Calm,-,N/A,Fog,Light Freezing Fog,0,2013-01-03 09:35:00
4:55 AM,6.6,3.6,87,30.19,0.5,North,-9999.0,-,N/A,Fog,Light Freezing Fog,0,2013-01-03 09:55:00
5:15 AM,7.2,4.1,87,30.19,3.0,North,-9999.0,-,N/A,,Clear,0,2013-01-03 10:15:00
5:35 AM,5.5,2.7,88,30.19,0.8,SW,3.5,-,N/A,,Mist,220,2013-01-03 10:35:00
5:55 AM,2.1,-1.8,83,30.19,0.5,North,-9999.0,-,N/A,Fog,Light Freezing Fog,0,2013-01-03 10:55:00
6:15 AM,5.9,3.0,88,30.19,3.0,SSW,4.6,-,N/A,,Clear,200,2013-01-03 11:15:00
6:35 AM,6.4,3.4,87,30.20,3.0,North,-9999.0,-,N/A,,Clear,0,2013-01-03 11:35:00
6:55 AM,4.8,1.6,86,30.21,4.0,North,-9999.0,-,N/A,,Clear,0,2013-01-03 11:55:00
7:15 AM,7.7,4.8,88,30.21,5.0,SSW,3.5,-,N/A,,Clear,210,2013-01-03 12:15:00
7:50 AM,6.8,3.2,85,30.21,7.0,Calm,Calm,-,N/A,,Clear,0,2013-01-03 12:50:00
8:40 AM,6.8,3.2,85,30.21,7.0,South,3.5,-,N/A,,Clear,190,2013-01-03 13:40:00
9:47 AM,12.2,8.6,85,30.22,7.0,Calm,Calm,-,N/A,,Clear,0,2013-01-03 14:47:00
10:50 AM,19.4,17.6,93,30.21,10.0,SW,6.9,-,N/A,,Clear,220,2013-01-03 15:50:00
11:50 AM,24.8,12.2,59,30.20,10.0,SW,9.2,-,N/A,,Clear,230,2013-01-03 16:50:00
12:50 PM,28.4,12.2,51,30.18,10.0,SW,15.0,-,N/A,,Clear,220,2013-01-03 17:50:00
1:50 PM,28.4,14.0,55,30.17,10.0,SW,15.0,-,N/A,,Clear,230,2013-01-03 18:50:00
2:52 PM,30.2,17.6,60,30.19,10.0,WSW,11.5,-,N/A,,Clear,240,2013-01-03 19:52:00
3:45 PM,30.2,19.4,64,30.20,10.0,WSW,9.2,-,N/A,,Clear,240,2013-01-03 20:45:00
4:50 PM,28.4,19.4,69,30.22,10.0,WSW,8.1,-,N/A,,Mostly Cloudy,240,2013-01-03 21:50:00
5:50 PM,26.6,21.2,80,30.24,10.0,SW,10.4,-,N/A,,Overcast,230,2013-01-03 22:50:00
6:45 PM,28.4,21.2,74,30.25,10.0,SW,10.4,-,N/A,,Overcast,230,2013-01-03 23:45:00
8:15 PM,27.7,21.7,78,30.25,10.0,SW,8.1,-,N/A,,Overcast,230,2013-01-04 01:15:00
8:35 PM,27.5,21.9,80,30.26,10.0,SW,8.1,-,N/A,,Overcast,230,2013-01-04 01:35:00
8:55 PM,27.5,21.9,80,30.26,10.0,WSW,6.9,-,N/A,,Overcast,240,2013-01-04 01:55:00
9:15 PM,28.0,22.1,78,30.26,10.0,WSW,6.9,-,N/A,,Overcast,240,2013-01-04 02:15:00
9:35 PM,28.8,22.1,76,30.26,10.0,West,11.5,16.1,N/A,,Overcast,280,2013-01-04 02:35:00
9:55 PM,29.1,22.1,75,30.27,10.0,West,5.8,-,N/A,,Overcast,270,2013-01-04 02:55:00
10:15 PM,29.1,21.2,72,30.27,10.0,West,10.4,17.3,N/A,,Overcast,270,2013-01-04 03:15:00
10:35 PM,28.9,21.6,74,30.27,10.0,West,8.1,-,N/A,,Overcast,270,2013-01-04 03:35:00
10:55 PM,28.9,21.7,74,30.27,10.0,West,6.9,-,N/A,,Overcast,270,2013-01-04 03:55:00
11:15 PM,28.6,21.9,76,30.27,10.0,WSW,8.1,-,N/A,,Overcast,240,2013-01-04 04:15:00
11:35 PM,28.8,22.1,76,30.27,10.0,WSW,6.9,-,N/A,,Overcast,240,2013-01-04 04:35:00
11:55 PM,28.6,22.5,78,30.26,10.0,WSW,6.9,-,N/A,,Overcast,240,2013-01-04 04:55:00